Zurück zum Katalog

DJIBOUTI-1B

AktivWissenschaftVLEO
NORAD 62402·PAYLOAD·🇩🇯 DJ

Gestartet Dec 21, 2024 von Vandenberg Space Force Base

Loading…

Nächste Überflüge (nächste 24 Stunden)

TLE

AktuellSource: Space-Track

Epoche: Sep 14, 2026, 13:46 UTC

1 62402U 24247AB  26257.57422850  .00084194  00000-0  75670-3 0  9992
2 62402  44.9656  90.1972 0010317 239.4053 120.5827 15.67266139 97508

Verfolge DJIBOUTI-1B in Echtzeit mit AllMySat

Download on the App Store